Simultaneous Nadir Overpasses (SNOs) Predictions

Prediction of SNOs between GOES-17 and NOAA-19 Satellite Orbit:

Table of predicted SNOs for the next 14.0 days since TLE Epoch: 5/2/2025
Index Date Time (GOES-17) GOES-17 Lat,Lon NOAA-19 Lat,Lon Distance(km) Time Diff (sec)
1 05/04/2025 16:48:28 0.02,-104.41 0.37,-106.02 182.79 80
2 05/05/2025 16:38:30 0.02,-104.42 -0.30,-102.95 167.31 80
3 05/08/2025 04:57:18 -0.01,-104.39 -0.73,-107.43 348.22 80
4 05/09/2025 04:42:02 -0.01,-104.39 0.00,-104.38 2.53 80
5 05/10/2025 04:29:24 -0.01,-104.40 0.68,-101.31 352.56 80
6 05/11/2025 17:00:30 0.01,-104.46 0.98,-108.79 493.70 80
7 05/12/2025 16:47:53 0.01,-104.47 0.30,-105.72 143.41 80
8 05/13/2025 16:37:55 0.01,-104.47 -0.39,-102.66 206.81 80
9 05/16/2025 04:56:42 -0.00,-104.44 -0.65,-107.14 309.02 80
